Fort Lewis, WA
on Tuesday, January 8, 2013

Tuesday
Previous Day Next Day
Daily Summary
 ActualAverage (KOLM)Record (KOLM)
Temperature
Mean Temperature °F 39°F  
Max Temperature 53°F 45°F 55°F (1953)
Min Temperature 40°F 34°F 9°F (1974)
Degree Days
Heating Degree Days 18 26  
Month to date heating degree days 208  
Since 1 July heating degree days 2478  
Cooling Degree Days 0 0  
Month to date cooling degree days 0  
Year to date cooling degree days 0  
Moisture
Dew Point 45°F   
Average Humidity 94    
Maximum Humidity 100    
Minimum Humidity 74    
Precipitation
Precipitation 0.23 in 0.26 in 1.20 in (1990)
Month to date precipitation 2.04  
Year to date precipitation 2.04  
Wind
Wind Speed 8 mph   
Max Wind Speed 26 mph   
Max Gust Speed 39 mph   
Visibility 8 miles   
Events Rain   

Key: T is trace of precipitation, MM is missing value
Source: NWS Daily Summary
Time(PST)TemperatureDew PointHumidity Pressure Visibility Wind DirectionWind SpeedGust SpeedPrecipitationEvents Conditions
12:58 AM 43.5°F 41.5°F 93% 30.19 in 10.0 miles SSE 5.8 mph - N/A   Overcast
1:58 AM 43.5°F 41.4°F 92% 30.18 in 10.0 miles SSE 4.6 mph - N/A   Clear
2:58 AM 43.0°F 41.2°F 93% 30.17 in 10.0 miles SE 3.5 mph - N/A   Clear
3:58 AM 41.0°F 40.3°F 97% 30.16 in 10.0 miles SE 2.3 mph - N/A   Clear
4:48 AM 41.0°F 41.0°F 100% 30.12 in 10.0 miles ESE 1.2 mph - N/A   Mostly Cloudy
4:53 AM 41.0°F 41.0°F 100% 30.11 in 9.0 miles NE 1.2 mph - N/A   Mostly Cloudy
4:58 AM 40.8°F 40.6°F 99% 30.13 in 9.0 miles NE 3.5 mph - N/A   Mostly Cloudy
4:59 AM 41.0°F 41.0°F 100% 30.11 in 10.0 miles NE 2.3 mph - N/A   Light Drizzle
5:09 AM 42.8°F 41.0°F 93% 30.11 in 10.0 miles ENE 2.3 mph - N/A   Light Drizzle
5:10 AM 42.8°F 41.0°F 93% 30.11 in 10.0 miles ENE 2.3 mph - N/A   Overcast
5:19 AM 41.0°F 41.0°F 100% 30.11 in 10.0 miles Calm Calm - N/A   Light Drizzle
5:34 AM 42.8°F 41.0°F 93% 30.09 in 10.0 miles NE 5.8 mph - N/A   Light Drizzle
5:44 AM 42.8°F 42.8°F 100% 30.09 in 10.0 miles NE 5.8 mph - N/A Rain Light Rain
5:54 AM 42.8°F 42.8°F 100% 30.08 in 9.0 miles East 2.3 mph - N/A Rain Light Rain
5:58 AM 42.4°F 42.1°F 99% 30.10 in 9.0 miles East 2.3 mph - 0.03 in Rain Light Rain
6:03 AM 42.8°F 42.8°F 100% 30.08 in 10.0 miles ESE 2.3 mph - N/A Rain Light Rain
6:08 AM 42.8°F 42.8°F 100% 30.07 in 10.0 miles ESE 2.3 mph - N/A   Light Drizzle
6:26 AM 42.8°F 41.0°F 93% 30.06 in 10.0 miles East 2.3 mph - N/A   Overcast
6:29 AM 42.8°F 41.0°F 93% 30.06 in 10.0 miles ESE 2.3 mph - N/A   Light Drizzle
6:58 AM 41.9°F 41.2°F 97% 30.07 in 8.0 miles East 2.3 mph - 0.01 in   Light Drizzle
7:03 AM 42.8°F 41.0°F 93% 30.05 in 7.0 miles ENE 3.5 mph - N/A   Light Drizzle
7:17 AM 41.0°F 41.0°F 100% 30.04 in 6.0 miles NE 3.5 mph - N/A   Overcast
7:19 AM 41.0°F 41.0°F 100% 30.04 in 5.0 miles NE 4.6 mph - N/A   Light Drizzle
7:29 AM 41.0°F 41.0°F 100% 30.03 in 3.0 miles ENE 4.6 mph - N/A Rain Light Rain
7:34 AM 41.0°F 41.0°F 100% 30.03 in 3.0 miles ENE 4.6 mph - N/A Rain Light Rain
7:49 AM 41.0°F 41.0°F 100% 30.02 in 7.0 miles ENE 3.5 mph - N/A Rain Light Rain
7:54 AM 41.0°F 41.0°F 100% 30.02 in 5.0 miles NE 2.3 mph - N/A Rain Light Rain
7:58 AM 41.4°F 41.2°F 99% 30.04 in 4.0 miles NE 1.2 mph - 0.05 in Rain Light Rain
8:08 AM 41.0°F 41.0°F 100% 30.01 in 4.0 miles NNE 4.6 mph - N/A Rain Light Rain
8:30 AM 41.0°F 41.0°F 100% 30.01 in 3.0 miles NE 2.3 mph - N/A Rain Light Rain
8:36 AM 41.0°F 41.0°F 100% 30.02 in 2.5 miles North 2.3 mph - N/A Rain Light Rain
8:47 AM 41.0°F 41.0°F 100% 30.02 in 2.5 miles Variable 2.3 mph - N/A   Overcast
8:59 AM 41.0°F 41.0°F 100% 30.01 in 2.5 miles Variable 2.3 mph - N/A Rain Light Rain
9:45 AM 41.0°F 41.0°F 100% 0.30 in 2.0 miles Variable 1.2 mph - N/A Rain Light Rain
9:59 AM 41.7°F 41.5°F 99% 30.01 in 3.0 miles Variable 1.2 mph - 0.04 in Rain Light Rain
10:15 AM 42.8°F 42.8°F 100% 29.98 in 4.0 miles SE 5.8 mph - N/A Rain Light Rain
10:35 AM - - N/A% - - SE 3.5 mph - N/A   Unknown
10:36 AM 42.8°F 42.8°F 100% 29.97 in 5.0 miles SSE 2.3 mph - N/A   Overcast
10:41 AM 42.8°F 42.8°F 100% 29.97 in 5.0 miles SE 5.8 mph - N/A Rain Light Rain
10:51 AM 42.8°F 42.8°F 100% 29.97 in 6.0 miles SSE 3.5 mph - N/A   Light Drizzle
10:55 AM 42.8°F 42.8°F 100% 29.96 in 6.0 miles SSE 4.6 mph - N/A   Light Drizzle
10:58 AM 43.2°F 43.0°F 99% 29.98 in 5.0 miles SSE 4.6 mph - 0.03 in   Light Drizzle
11:02 AM 42.8°F 42.8°F 100% 29.96 in 2.0 miles South 4.6 mph - N/A   Light Drizzle
11:17 AM 42.8°F 42.8°F 100% 29.94 in 4.0 miles SSE 3.5 mph - N/A   Overcast
11:25 AM 44.6°F 42.8°F 93% 29.94 in 4.0 miles SSE 4.6 mph - N/A Rain Light Rain
11:30 AM 44.6°F 42.8°F 93% 29.94 in 7.0 miles SSE 5.8 mph - N/A Rain Light Rain
11:46 AM 44.6°F 44.6°F 100% 29.93 in 3.0 miles SSE 8.1 mph - N/A Rain Light Rain
11:58 AM 46.4°F 46.4°F 100% 29.95 in 4.0 miles South 13.8 mph 19.6 mph N/A Rain Light Rain
12:11 PM 48.2°F 48.2°F 100% 29.92 in 8.0 miles SSE 18.4 mph 23.0 mph N/A Rain Light Rain
12:16 PM 48.2°F 48.2°F 100% 29.92 in 9.0 miles South 17.3 mph 25.3 mph N/A   Overcast
12:50 PM 50.0°F 48.2°F 94% 29.91 in 8.0 miles South 16.1 mph 27.6 mph N/A Rain Light Rain
12:58 PM 49.8°F 48.7°F 96% 29.92 in 9.0 miles SSE 21.9 mph 27.6 mph 0.02 in Rain Light Rain
1:04 PM 50.0°F 48.2°F 94% 29.90 in 10.0 miles South 19.6 mph 31.1 mph N/A   Overcast
1:19 PM 50.0°F 48.2°F 94% 29.90 in 10.0 miles South 15.0 mph 26.5 mph N/A   Overcast
1:21 PM 50.0°F 48.2°F 94% 29.90 in 10.0 miles South 17.3 mph 26.5 mph N/A Rain Light Rain
1:30 PM 50.0°F 50.0°F 100% 29.89 in 10.0 miles SSE 19.6 mph 26.5 mph N/A   Overcast
1:32 PM 50.0°F 50.0°F 100% 29.89 in 10.0 miles South 18.4 mph 26.5 mph N/A Rain Light Rain
1:44 PM 50.0°F 48.2°F 94% 29.88 in 10.0 miles South 17.3 mph 27.6 mph N/A   Overcast
1:58 PM 50.7°F 49.1°F 94% 29.90 in 10.0 miles South 17.3 mph 26.5 mph 0.01 in   Overcast
2:38 PM 51.8°F 48.2°F 88% 29.87 in 10.0 miles South 21.9 mph 31.1 mph N/A   Overcast
2:43 PM 51.8°F 48.2°F 88% 29.87 in 10.0 miles SSE 19.6 mph 28.8 mph N/A   Overcast
2:44 PM 51.8°F 48.2°F 88% 29.87 in 10.0 miles South 17.3 mph 28.8 mph N/A Rain Light Rain
2:52 PM 51.8°F 50.0°F 94% 29.87 in 10.0 miles South 19.6 mph 27.6 mph N/A   Overcast
2:58 PM 51.1°F 49.1°F 93% 29.89 in 10.0 miles South 18.4 mph 27.6 mph 0.00 in   Overcast
3:58 PM 51.3°F 49.3°F 93% 29.89 in 10.0 miles South 18.4 mph 27.6 mph 0.01 in   Overcast
3:59 PM 51.8°F 50.0°F 94% 29.87 in 10.0 miles South 18.4 mph 27.6 mph N/A Rain Light Rain
4:16 PM 51.8°F 50.0°F 94% 29.85 in 2.5 miles South 18.4 mph 29.9 mph N/A   Overcast
4:21 PM 51.8°F 50.0°F 94% 29.85 in 10.0 miles South 20.7 mph 26.5 mph N/A   Overcast
4:58 PM 51.1°F 49.1°F 93% 29.85 in 10.0 miles South 21.9 mph 35.7 mph 0.01 in   Overcast
5:23 PM 51.8°F 48.2°F 88% 29.82 in 10.0 miles South 20.7 mph 33.4 mph N/A   Mostly Cloudy
5:28 PM 51.8°F 48.2°F 88% 29.83 in 10.0 miles South 24.2 mph 33.4 mph N/A   Mostly Cloudy
5:58 PM 52.0°F 47.7°F 85% 29.84 in 10.0 miles South 23.0 mph 39.1 mph N/A   Mostly Cloudy
6:18 PM 51.8°F 48.2°F 88% 29.82 in 10.0 miles South 20.7 mph 34.5 mph N/A   Overcast
6:58 PM 51.8°F 48.0°F 87% 29.83 in 10.0 miles South 20.7 mph 38.0 mph N/A   Overcast
7:13 PM 51.8°F 48.2°F 88% 29.81 in 10.0 miles South 26.5 mph 31.1 mph N/A   Overcast
7:58 PM 52.0°F 47.1°F 83% 29.82 in 10.0 miles South 18.4 mph 26.5 mph N/A   Overcast
8:03 PM 51.8°F 46.4°F 82% 29.81 in 10.0 miles South 18.4 mph 28.8 mph N/A   Overcast
8:08 PM 51.8°F 46.4°F 82% 29.80 in 10.0 miles South 23.0 mph 32.2 mph N/A   Overcast
8:23 PM 51.8°F 46.4°F 82% 29.80 in 10.0 miles SSE 21.9 mph 33.4 mph N/A   Overcast
8:38 PM 51.8°F 46.4°F 82% 29.80 in 10.0 miles South 19.6 mph 28.8 mph N/A   Overcast
8:47 PM 51.8°F 48.2°F 88% 29.79 in 10.0 miles SSE 18.4 mph 31.1 mph N/A Rain Light Rain
8:58 PM 51.4°F 47.5°F 86% 29.79 in 10.0 miles South 17.3 mph 25.3 mph 0.00 in Rain Light Rain
9:00 PM 51.8°F 48.2°F 88% 29.78 in 10.0 miles South 19.6 mph 28.8 mph N/A   Overcast
9:04 PM 51.8°F 48.2°F 88% 29.78 in 10.0 miles South 17.3 mph 28.8 mph N/A Rain Light Rain
9:40 PM 51.8°F 48.2°F 88% 29.77 in 10.0 miles South 20.7 mph 28.8 mph N/A   Overcast
9:58 PM 51.8°F 46.9°F 83% 29.76 in 10.0 miles South 18.4 mph 27.6 mph 0.02 in   Overcast
10:58 PM 53.2°F 45.3°F 74% 29.77 in 10.0 miles South 17.3 mph 32.2 mph N/A   Overcast
11:55 PM 51.8°F 44.6°F 76% 29.75 in 10.0 miles South 15.0 mph 24.2 mph N/A Rain Light Rain
11:58 PM 52.9°F 45.1°F 75% 29.77 in 10.0 miles South 15.0 mph 24.2 mph N/A Rain Light Rain
Moon Phase
Jan. 08 Jan. 11 Jan. 18 Jan. 26 Feb. 03
Sunrise:07:55 AM (PST) Moon Rise:04:33 AM (PST)1/8
Sunset:04:39 PM (PST) Moon Set:01:47 PM (PST)1/8

Copyright © 2014 The Weather Underground, Inc.